Location: Fort Lauderdale
(26.1220°N, 80.1440°W)
Time: 03:29:07
(UTC-04:00)

Envisat - Visible Passes

Search period start: 19 October 2019 00:00
Search period end: 29 October 2019 00:00
Orbit: 764 x 766 km, 98.1° (Epoch: 19 October)

Date Brightness Start Highest point End Pass type
(mag) Time Alt. Az. Time Alt. Az. Time Alt. Az.
19 Oct 3.5 19:04:31 10° SE 19:09:11 38° ENE 19:13:50 10° N visible
19 Oct 5.8 20:45:04 10° SW 20:48:12 16° W 20:51:21 10° WNW visible
20 Oct 4.3 20:06:32 10° S 20:11:18 42° W 20:16:06 10° NNW visible
21 Oct 2.9 19:29:31 10° SSE 19:34:33 74° ENE 19:39:38 10° N visible
22 Oct 5.5 20:33:02 10° SSW 20:36:53 22° W 20:40:45 10° NW visible
23 Oct 3.7 19:55:04 10° S 20:00:02 56° W 20:05:01 10° NNW visible
24 Oct 3.1 19:18:24 10° SSE 19:23:20 56° ENE 19:28:18 10° N visible
24 Oct 6.3 21:01:27 10° WSW 21:02:31 11° W 21:03:37 10° W visible
25 Oct 5.0 20:21:14 10° SSW 20:25:35 29° W 20:29:56 10° NW visible
26 Oct 6.3 07:00:38 10° ENE 07:03:21 14° E 07:06:04 10° SE visible
26 Oct 3.2 19:43:43 10° S 19:48:46 75° WSW 19:53:51 10° NNW visible
27 Oct 3.4 19:07:22 10° SE 19:12:07 42° ENE 19:16:52 10° N visible
27 Oct 6.0 20:48:26 10° SW 20:51:12 15° W 20:53:58 10° WNW visible
28 Oct 4.5 20:09:36 10° SSW 20:14:17 38° W 20:18:58 10° NNW visible
